Regional Weather Roundup
Issued by NWS San Diego, CA

Home | Current Version | Previous Version | Text Only | Print | Product List | Glossary On
Versions: 1 2 3 4 5 6 7 8 9 10 11 12 13 14 15 16 17 18 19 20 21 22 23 24 25 26 27 28 29 30 31 32 33 34 35 36 37 38 39 40 41 42 43 44 45 46 47 48 49 50
000
ASUS46 KSGX 191810
RWRSGX

SAN DIEGO HOURLY WEATHER ROUNDUP
NATIONAL WEATHER SERVICE SAN DIEGO CA
1000 AM PST FRI DEC 19 2014

NOTE: "FAIR" INDICATES FEW OR NO CLOUDS BELOW 12,000 FEET WITH NO
SIGNIFICANT WEATHER AND/OR OBSTRUCTIONS TO VISIBILITY.

CAZ042-043-060-061-PZZ750-775-191900-

GREATER SAN DIEGO AREA

CITY           SKY/WX    TMP DP  RH WIND       PRES   REMARKS
LINDBERGH FLD  MOSUNNY   63  45  51 CALM      30.24F
POINT LOMA       N/A     62  49  62 E6          N/A
NATIONAL CITY    N/A     61  51  69 CALM      30.24F
IMPERIAL BEACH MOSUNNY   63  46  54 E8        30.23F
BROWN FIELD    SUNNY     59  45  59 SE5       30.23F
MIRAMAR MCAS   MOSUNNY   63  45  51 E3        30.23F
MONTGOMERY FLD SUNNY     61  47  59 CALM      30.23F

$$

NORTH SAN DIEGO COUNTY

CITY           SKY/WX    TMP DP  RH WIND       PRES   REMARKS
CAMP PENDLETON MOSUNNY   59  48  67 CALM      30.24F
OCEANSIDE AP   SUNNY     59  45  59 NE6       30.23F
OCEANSIDE HBR    N/A     60  47  62 E6        30.26F
VISTA            N/A     58  52  78 CALM      30.23F
CARLSBAD       SUNNY     61  47  59 CALM      30.23S
DEL MAR          N/A     60  53  77 CALM      30.26F
LA JOLLA SCRIP   N/A     62  52  69 CALM      30.21F
ESCONDIDO        N/A     60  48  64 SE3       30.26F
SAN MARCOS       N/A     60  48  65 E2        30.22F
POWAY            N/A     57  51  78 CALM      30.27F

$$

EAST SAN DIEGO COUNTY

CITY           SKY/WX    TMP DP  RH WIND       PRES   REMARKS
RAMONA         SUNNY     56  43  61 CALM      30.23F
SANTEE LAKES     N/A     56  49  78 CALM      30.26F
LA MESA          N/A     57  49  73 E5        30.19F
JAMUL            N/A     58  49  70 CALM      30.24F
CAMPO            N/A     55  37  50 E12       30.18S

$$

ORANGE COUNTY AND THE LOS ANGELES BASIN

CITY           SKY/WX    TMP DP  RH WIND       PRES   REMARKS
JOHN WAYNE AP  MOSUNNY   63  46  54 CALM      30.24R
LAGUNA BEACH     N/A     60  52  74 CALM      30.20R
LAKE FOREST FR   N/A     59  45  58 CALM      30.16R
SANTA ANA        N/A     64  53  67 CALM      30.19S
HUNTINGTON BCH   N/A     62  53  72 CALM      30.26R
LOS ALAMITOS   MOSUNNY   60  49  68 VRB1      30.24S
FULLERTON      SUNNY     61  47  59 E3        30.23S
LONG BEACH     SUNNY     60  49  66 CALM      30.24S
L.A. AP        MOSUNNY   59  47  64 E7        30.24S
L.A. DOWNTOWN  SUNNY     60  43  53 VRB5      30.23F

$$

THE INLAND EMPIRE

CITY           SKY/WX    TMP DP  RH WIND       PRES   REMARKS
CORONA         SUNNY     56  47  71 CALM      30.25F
CHINO          MOSUNNY   54  46  74 CALM      30.26S
ONTARIO        MOSUNNY   56  42  59 VRB3      30.24S
SAN BERNARDINO MOSUNNY   54  39  58 CALM      30.25S
RIVERSIDE AP   SUNNY     55  44  66 E5        30.24F
MARCH ARB      SUNNY     53  48  84 CALM      30.25S
FRENCH VALLEY  FAIR      54  43  66 N3        30.25F

$$

SAN BERNARDINO AND RIVERSIDE COUNTY MOUNTAINS

CITY           SKY/WX    TMP DP  RH WIND       PRES   REMARKS
BIG BEAR AP    SUNNY     36  27  69 W5        30.26S WCI  32
PINE COVE        N/A     42  31  66 SW1       30.32F

$$

SOUTHERN DESERT INCLUDING THE COACHELLA VALLEY

CITY           SKY/WX    TMP DP  RH WIND       PRES   REMARKS
PALM SPRINGS   SUNNY     60  39  45 CALM      30.27S
THOUSAND PALMS   N/A     57  42  58 NW1       30.23R
PALM DESERT      N/A     57  45  63 CALM      32.08S
THERMAL        MOSUNNY   58  44  60 NW5       30.25R
BLYTHE         PTSUNNY   53  43  68 CALM      30.26S
IMPERIAL AP    PTSUNNY   57  47  69 CALM      30.25S
EL CENTRO NAS  PTSUNNY   56  46  69 W3        30.26R
YUMA AZ        PTSUNNY   59  41  51 NE8       30.24F
MEXICALI       PTSUNNY   55  46  71 NW2       30.26

$$

UPPER DESERT

CITY           SKY/WX    TMP DP  RH WIND       PRES   REMARKS
VICTORVILLE AP   N/A     45  36  70 SE8       30.24F
HESPERIA         N/A     43  37  79 NE1       30.45S
APPLE VALLEY     N/A     46  37  69 CALM      30.29S
PALMDALE       SUNNY     48  38  68 CALM      30.24F
LANCASTER      SUNNY     46  37  71 CALM      30.25F
EDWARDS AFB    PTSUNNY   41  38  89 N5        30.24F
DAGGETT        SUNNY     48  38  68 W7        30.27F
29 PALMS N     PTSUNNY   45  36  70 CALM      30.33S
NEEDLES        PTSUNNY   53  40  61 CALM      30.27R

$$

REGIONAL REPORTS

CITY           SKY/WX    TMP DP  RH WIND       PRES   REMARKS
SANTA BARBARA  MOSUNNY   61  51  70 CALM      30.24R
SANDBERG       SUNNY     48  35  60 S5        30.24R
MT. WILSON       N/A     50  36  57 MISG        N/A
LAS VEGAS NV   PTSUNNY   49  37  63 S3        30.23S
PHOENIX AZ     MOSUNNY   56  39  53 E6        30.24S
TIJUANA        SUNNY     57  41  54 E6        30.26F
ENSENADA NW      N/A     62  32  32 SW1       30.20F

$$

OFFSHORE ISLANDS

CITY           SKY/WX    TMP DP  RH WIND       PRES   REMARKS
CATALINA ARPT  MOSUNNY   55  51  86 SE6       30.24S
SAN CLEMENTE I PTSUNNY   62  55  77 E12       30.20S
SAN NICOLAS IS MOSUNNY  N/A N/A N/A CALM      30.24R

$$

MARINE AND OFFSHORE BUOY REPORTS

STATION/POSITION SKY/WX   TEMP    WIND        PRES    SWELL
                          AIR SEA DIR/SP/G            HT/PER/DIR
                          (F)     (DEG/KT/KT) (MB)    (FT/S/D)
TANNER BANKS               62 64  320/  4/  8 1023.8R   8/300/14
S CLEMENTE BASIN           62 65  360/  4/  6 1023.4R   5/280/14
SAN NICOLAS IS.               63                N/A     5/300/13
SO. S. ROSA ISLA           60 62  250/  4/  6 1023.8R   7/13
W. S. BARBARA CH           60 61  200/  2/  4 1023.4R   7/280/12
S. MONICA BASIN            60 64  100/  8/ 10 1024.0S   3/250/11
S PEDRO CHANNEL               64                N/A     2/270/12
DANA POINT                    64                N/A     2/260/14
CMP PENDLETON NS              64                N/A     2/230/14
OCEANSIDE OFFSHR              64                N/A     2/230/13
TORREY PINES OTR              65                N/A     3/280/13
LA JOLLA 1                 63 64   90/  2/  7 1023.8F
MISSION BAY BUOY              65                N/A     3/280/13
SAN DIEGO BAY                 65              1024.2F
POINT LOMA SOUTH              65                N/A     3/260/13

$$




USA.gov is the U.S. government's official web portal to all federal, state and local government web resources and services.